Time,TemperatureF,DewpointF,PressureIn,WindDirection,WindDirectionDegrees,WindSpeedMPH,WindSpeedGustMPH,Humidity,HourlyPrecipIn,Conditions,Clouds,dailyrainin,SoftwareType,DateUTC
2013-08-16 00:02:00,66.6,52.2,30.11,NE,38,0.0,0.0,60,0.00,,,0.00,WeatherDisplay:10.36,2013-08-16 05:02:00,
2013-08-16 00:07:00,66.4,52.5,30.11,NE,39,0.0,0.0,61,0.00,,,0.00,WeatherDisplay:10.36,2013-08-16 05:07:00,
2013-08-16 00:12:00,66.4,52.5,30.11,NE,39,0.0,0.0,61,0.00,,,0.00,WeatherDisplay:10.36,2013-08-16 05:12:00,
2013-08-16 00:19:00,66.2,52.8,30.11,NE,38,0.0,0.0,62,0.00,,,0.00,WeatherDisplay:10.36,2013-08-16 05:19:00,
2013-08-16 00:25:00,66.0,52.6,30.11,NE,38,0.0,0.0,62,0.00,,,0.00,WeatherDisplay:10.36,2013-08-16 05:25:00,
2013-08-16 00:30:00,66.0,52.6,30.11,NE,38,0.0,0.0,62,0.00,,,0.00,WeatherDisplay:10.36,2013-08-16 05:30:00,
2013-08-16 00:35:00,65.8,52.5,30.11,NE,38,0.0,0.0,62,0.00,,,0.00,WeatherDisplay:10.36,2013-08-16 05:35:00,
2013-08-16 00:40:00,65.8,52.5,30.11,NE,39,0.0,0.0,62,0.00,,,0.00,WeatherDisplay:10.36,2013-08-16 05:40:00,
2013-08-16 00:45:00,65.7,52.7,30.11,NE,38,0.0,0.0,63,0.00,,,0.00,WeatherDisplay:10.36,2013-08-16 05:45:00,
2013-08-16 00:50:00,65.5,52.5,30.11,NE,38,0.0,0.0,63,0.00,,,0.00,WeatherDisplay:10.36,2013-08-16 05:50:00,
2013-08-16 00:55:00,65.3,52.8,30.11,NE,39,0.0,0.0,64,0.00,,,0.00,WeatherDisplay:10.36,2013-08-16 05:55:00,
2013-08-16 01:00:00,65.1,52.6,30.11,NE,38,0.0,0.0,64,0.00,,,0.00,WeatherDisplay:10.36,2013-08-16 06:00:00,
2013-08-16 01:05:00,64.9,52.9,30.11,NE,39,0.0,0.0,65,0.00,,,0.00,WeatherDisplay:10.36,2013-08-16 06:05:00,
2013-08-16 01:10:00,64.9,52.9,30.11,NE,39,0.0,0.0,65,0.00,,,0.00,WeatherDisplay:10.36,2013-08-16 06:10:00,
2013-08-16 01:15:00,64.9,52.9,30.11,NE,38,0.0,0.0,65,0.00,,,0.00,WeatherDisplay:10.36,2013-08-16 06:15:00,
2013-08-16 01:20:00,64.6,52.5,30.08,NE,39,0.0,0.0,65,0.00,,,0.00,WeatherDisplay:10.36,2013-08-16 06:20:00,
2013-08-16 01:25:00,64.6,52.5,30.08,NE,38,0.0,0.0,65,0.00,,,0.00,WeatherDisplay:10.36,2013-08-16 06:25:00,
2013-08-16 01:30:00,64.4,52.8,30.08,NE,39,0.0,0.0,66,0.00,,,0.00,WeatherDisplay:10.36,2013-08-16 06:30:00,
2013-08-16 01:35:00,64.4,52.8,30.08,NE,38,0.0,0.0,66,0.00,,,0.00,WeatherDisplay:10.36,2013-08-16 06:35:00,
2013-08-16 01:40:00,64.4,52.8,30.08,NE,39,0.0,0.0,66,0.00,,,0.00,WeatherDisplay:10.36,2013-08-16 06:40:00,
2013-08-16 01:45:00,64.4,52.8,30.08,NE,38,0.0,0.0,66,0.00,,,0.00,WeatherDisplay:10.36,2013-08-16 06:45:00,
2013-08-16 01:50:00,64.4,52.8,30.08,NE,38,0.0,0.0,66,0.00,,,0.00,WeatherDisplay:10.36,2013-08-16 06:50:00,
2013-08-16 01:55:00,64.4,53.2,30.08,NE,39,0.0,0.0,67,0.00,,,0.00,WeatherDisplay:10.36,2013-08-16 06:55:00,
2013-08-16 02:00:00,64.6,53.4,30.08,NE,39,0.0,0.0,67,0.00,,,0.00,WeatherDisplay:10.36,2013-08-16 07:00:00,
2013-08-16 02:05:00,64.6,53.4,30.08,NE,38,0.0,0.0,67,0.00,,,0.00,WeatherDisplay:10.36,2013-08-16 07:05:00,
2013-08-16 02:10:00,64.6,53.4,30.08,NE,38,0.0,0.0,67,0.00,,,0.00,WeatherDisplay:10.36,2013-08-16 07:10:00,
2013-08-16 02:15:00,64.6,53.4,30.08,NE,39,0.0,0.0,67,0.00,,,0.00,WeatherDisplay:10.36,2013-08-16 07:15:00,
2013-08-16 02:20:00,64.8,53.5,30.08,NE,38,0.0,0.0,67,0.00,,,0.00,WeatherDisplay:10.36,2013-08-16 07:20:00,
2013-08-16 02:25:00,64.8,53.5,30.08,NE,38,0.0,0.0,67,0.00,,,0.00,WeatherDisplay:10.36,2013-08-16 07:25:00,
2013-08-16 02:30:00,64.8,53.9,30.08,NE,38,0.0,0.0,68,0.00,,,0.00,WeatherDisplay:10.36,2013-08-16 07:30:00,
2013-08-16 02:35:00,64.8,53.9,30.08,NE,39,0.0,0.0,68,0.00,,,0.00,WeatherDisplay:10.36,2013-08-16 07:35:00,
2013-08-16 02:40:00,64.8,53.9,30.08,NE,38,0.0,0.0,68,0.00,,,0.00,WeatherDisplay:10.36,2013-08-16 07:40:00,
2013-08-16 02:45:00,64.8,53.9,30.08,NE,38,0.0,0.0,68,0.00,,,0.00,WeatherDisplay:10.36,2013-08-16 07:45:00,
2013-08-16 02:50:00,64.8,53.9,30.08,NE,38,0.0,0.0,68,0.00,,,0.00,WeatherDisplay:10.36,2013-08-16 07:50:00,
2013-08-16 02:55:00,64.8,53.9,30.08,NE,38,0.0,0.0,68,0.00,,,0.00,WeatherDisplay:10.36,2013-08-16 07:55:00,
2013-08-16 03:00:00,64.6,53.8,30.08,NE,38,0.0,0.0,68,0.00,,,0.00,WeatherDisplay:10.36,2013-08-16 08:00:00,
2013-08-16 03:05:00,64.6,53.4,30.08,NE,38,0.0,0.0,67,0.00,,,0.00,WeatherDisplay:10.36,2013-08-16 08:05:00,
2013-08-16 03:10:00,64.4,53.2,30.08,NE,38,0.0,0.0,67,0.00,,,0.00,WeatherDisplay:10.36,2013-08-16 08:10:00,
2013-08-16 03:15:00,64.4,52.8,30.08,NE,38,0.0,0.0,66,0.00,,,0.00,WeatherDisplay:10.36,2013-08-16 08:15:00,
2013-08-16 03:20:00,64.6,53.0,30.08,NE,38,0.0,0.0,66,0.00,,,0.00,WeatherDisplay:10.36,2013-08-16 08:20:00,
2013-08-16 03:25:00,64.6,53.0,30.08,NE,38,0.0,0.0,66,0.00,,,0.00,WeatherDisplay:10.36,2013-08-16 08:25:00,
2013-08-16 03:30:00,64.6,53.0,30.08,NE,38,0.0,0.0,66,0.00,,,0.00,WeatherDisplay:10.36,2013-08-16 08:30:00,
2013-08-16 03:35:00,64.6,53.0,30.11,NE,38,0.0,0.0,66,0.00,,,0.00,WeatherDisplay:10.36,2013-08-16 08:35:00,
2013-08-16 03:40:00,64.6,52.5,30.11,NE,38,0.0,0.0,65,0.00,,,0.00,WeatherDisplay:10.36,2013-08-16 08:40:00,
2013-08-16 03:45:00,64.4,52.4,30.11,NE,39,0.0,0.0,65,0.00,,,0.00,WeatherDisplay:10.36,2013-08-16 08:45:00,
2013-08-16 03:50:00,64.4,52.4,30.11,NE,38,0.0,0.0,65,0.00,,,0.00,WeatherDisplay:10.36,2013-08-16 08:50:00,
2013-08-16 03:55:00,64.4,52.0,30.11,NE,38,0.0,0.0,64,0.00,,,0.00,WeatherDisplay:10.36,2013-08-16 08:55:00,
2013-08-16 04:00:00,64.4,52.0,30.11,NE,38,0.0,0.0,64,0.00,,,0.00,WeatherDisplay:10.36,2013-08-16 09:00:00,
2013-08-16 04:05:00,64.4,52.0,30.11,NE,39,0.0,0.0,64,0.00,,,0.00,WeatherDisplay:10.36,2013-08-16 09:05:00,
2013-08-16 04:10:00,64.4,52.0,30.11,NE,38,0.0,0.0,64,0.00,,,0.00,WeatherDisplay:10.36,2013-08-16 09:10:00,
2013-08-16 04:15:00,64.4,52.0,30.11,NE,38,0.0,0.0,64,0.00,,,0.00,WeatherDisplay:10.36,2013-08-16 09:15:00,
2013-08-16 04:20:00,64.4,52.0,30.11,NE,38,0.0,0.0,64,0.00,,,0.00,WeatherDisplay:10.36,2013-08-16 09:20:00,
2013-08-16 04:25:00,64.4,52.0,30.11,NE,38,0.0,0.0,64,0.00,,,0.00,WeatherDisplay:10.36,2013-08-16 09:25:00,
2013-08-16 04:30:00,64.4,52.0,30.11,NE,38,0.0,0.0,64,0.00,,,0.00,WeatherDisplay:10.36,2013-08-16 09:30:00,
2013-08-16 04:35:00,64.4,52.0,30.08,NE,38,0.0,0.0,64,0.00,,,0.00,WeatherDisplay:10.36,2013-08-16 09:35:00,
2013-08-16 04:40:00,64.4,52.0,30.08,NE,38,0.0,0.0,64,0.00,,,0.00,WeatherDisplay:10.36,2013-08-16 09:40:00,
2013-08-16 04:45:00,64.2,51.8,30.08,NE,38,0.0,0.0,64,0.00,,,0.00,WeatherDisplay:10.36,2013-08-16 09:45:00,
2013-08-16 04:50:00,64.2,51.8,30.08,NE,38,0.0,0.0,64,0.00,,,0.00,WeatherDisplay:10.36,2013-08-16 09:50:00,
2013-08-16 04:55:00,64.2,51.8,30.08,NE,39,0.0,0.0,64,0.00,,,0.00,WeatherDisplay:10.36,2013-08-16 09:55:00,
2013-08-16 05:00:00,64.0,52.0,30.08,NE,39,0.0,0.0,65,0.00,,,0.00,WeatherDisplay:10.36,2013-08-16 10:00:00,
2013-08-16 05:05:00,64.0,52.0,30.08,NE,38,0.0,0.0,65,0.00,,,0.00,WeatherDisplay:10.36,2013-08-16 10:05:00,
2013-08-16 05:10:00,63.9,51.9,30.08,NE,38,0.0,0.0,65,0.00,,,0.00,WeatherDisplay:10.36,2013-08-16 10:10:00,
2013-08-16 05:15:00,63.9,51.9,30.08,NE,38,0.0,0.0,65,0.00,,,0.00,WeatherDisplay:10.36,2013-08-16 10:15:00,
2013-08-16 05:21:00,63.9,52.3,30.08,NE,38,0.0,0.0,66,0.00,,,0.00,WeatherDisplay:10.36,2013-08-16 10:21:00,
2013-08-16 05:26:00,63.7,52.5,30.08,NE,38,0.0,0.0,67,0.00,,,0.00,WeatherDisplay:10.36,2013-08-16 10:26:00,
2013-08-16 05:31:00,63.7,52.5,30.08,NE,38,0.0,0.0,67,0.00,,,0.00,WeatherDisplay:10.36,2013-08-16 10:31:00,
2013-08-16 05:36:00,63.7,52.9,30.11,NE,38,0.0,0.0,68,0.00,,,0.00,WeatherDisplay:10.36,2013-08-16 10:36:00,
2013-08-16 05:41:00,63.7,52.9,30.11,NE,38,0.0,0.0,68,0.00,,,0.00,WeatherDisplay:10.36,2013-08-16 10:41:00,
2013-08-16 05:46:00,63.5,52.7,30.11,NE,38,0.0,0.0,68,0.00,,,0.00,WeatherDisplay:10.36,2013-08-16 10:46:00,
2013-08-16 05:51:00,63.5,52.7,30.11,NE,38,0.0,0.0,68,0.00,,,0.00,WeatherDisplay:10.36,2013-08-16 10:51:00,
2013-08-16 05:56:00,63.7,52.9,30.11,NE,38,0.0,0.0,68,0.00,,,0.00,WeatherDisplay:10.36,2013-08-16 10:56:00,
2013-08-16 06:01:00,63.5,52.7,30.11,NE,39,0.0,0.0,68,0.00,,,0.00,WeatherDisplay:10.36,2013-08-16 11:01:00,
2013-08-16 06:06:00,63.5,52.7,30.11,NE,38,0.0,0.0,68,0.00,,,0.00,WeatherDisplay:10.36,2013-08-16 11:06:00,
2013-08-16 06:11:00,63.5,53.1,30.11,NE,38,0.0,0.0,69,0.00,,,0.00,WeatherDisplay:10.36,2013-08-16 11:11:00,
2013-08-16 06:16:00,63.5,53.1,30.11,NE,38,0.0,0.0,69,0.00,,,0.00,WeatherDisplay:10.36,2013-08-16 11:16:00,
2013-08-16 06:21:00,63.5,53.1,30.11,NE,39,0.0,0.0,69,0.00,,,0.00,WeatherDisplay:10.36,2013-08-16 11:21:00,
2013-08-16 06:26:00,63.5,53.1,30.11,NE,38,0.0,0.0,69,0.00,,,0.00,WeatherDisplay:10.36,2013-08-16 11:26:00,
2013-08-16 06:31:00,63.5,53.1,30.11,NE,38,0.0,0.0,69,0.00,,,0.00,WeatherDisplay:10.36,2013-08-16 11:31:00,
2013-08-16 06:36:00,63.5,53.1,30.11,NE,38,0.0,0.0,69,0.00,,,0.00,WeatherDisplay:10.36,2013-08-16 11:36:00,
2013-08-16 06:41:00,63.5,53.1,30.11,NE,38,0.0,0.0,69,0.00,,,0.00,WeatherDisplay:10.36,2013-08-16 11:41:00,
2013-08-16 06:47:00,63.3,53.0,30.11,NE,38,0.0,0.0,69,0.00,,,0.00,WeatherDisplay:10.36,2013-08-16 11:47:00,
2013-08-16 06:52:00,63.3,53.4,30.11,NE,38,0.0,0.0,70,0.00,,,0.00,WeatherDisplay:10.36,2013-08-16 11:52:00,
2013-08-16 06:57:00,63.5,53.5,30.11,NE,38,0.0,0.0,70,0.00,,,0.00,WeatherDisplay:10.36,2013-08-16 11:57:00,
2013-08-16 07:02:00,63.5,53.5,30.11,NE,38,0.0,0.0,70,0.00,,,0.00,WeatherDisplay:10.36,2013-08-16 12:02:00,
2013-08-16 07:07:00,63.5,53.5,30.11,NE,38,0.0,0.0,70,0.00,,,0.00,WeatherDisplay:10.36,2013-08-16 12:07:00,
2013-08-16 07:12:00,63.5,53.5,30.11,NE,39,0.0,0.0,70,0.00,,,0.00,WeatherDisplay:10.36,2013-08-16 12:12:00,
2013-08-16 07:17:00,63.7,53.7,30.14,NE,38,0.0,0.0,70,0.00,,,0.00,WeatherDisplay:10.36,2013-08-16 12:17:00,
2013-08-16 07:22:00,63.7,53.7,30.14,NE,39,0.0,0.0,70,0.00,,,0.00,WeatherDisplay:10.36,2013-08-16 12:22:00,
2013-08-16 07:27:00,63.7,53.7,30.14,NE,38,0.0,0.0,70,0.00,,,0.00,WeatherDisplay:10.36,2013-08-16 12:27:00,
2013-08-16 07:32:00,63.9,53.9,30.14,NE,38,0.0,0.0,70,0.00,,,0.00,WeatherDisplay:10.36,2013-08-16 12:32:00,
2013-08-16 07:37:00,63.9,54.3,30.14,NE,38,0.0,0.0,71,0.00,,,0.00,WeatherDisplay:10.36,2013-08-16 12:37:00,
2013-08-16 07:42:00,64.0,54.4,30.14,NE,38,0.0,0.0,71,0.00,,,0.00,WeatherDisplay:10.36,2013-08-16 12:42:00,
2013-08-16 07:47:00,64.2,54.6,30.14,NE,39,0.0,0.0,71,0.00,,,0.00,WeatherDisplay:10.36,2013-08-16 12:47:00,
2013-08-16 07:52:00,64.2,54.6,30.14,North,351,4.6,4.6,71,0.00,,,0.00,WeatherDisplay:10.36,2013-08-16 12:52:00,
2013-08-16 07:57:00,64.2,55.0,30.14,North,351,0.0,2.7,72,0.00,,,0.00,WeatherDisplay:10.36,2013-08-16 12:57:00,
2013-08-16 08:02:00,64.4,55.2,30.94,North,351,0.0,0.0,72,0.00,,,0.00,WeatherDisplay:10.36,2013-08-16 13:02:00,
2013-08-16 08:07:00,64.9,55.7,30.94,North,351,0.0,0.0,72,0.00,,,0.00,WeatherDisplay:10.36,2013-08-16 13:07:00,
2013-08-16 08:12:00,65.5,56.2,30.94,North,351,0.0,0.0,72,0.00,,,0.00,WeatherDisplay:10.36,2013-08-16 13:12:00,
2013-08-16 08:17:00,66.0,56.3,30.94,North,351,0.0,0.0,71,0.00,,,0.00,WeatherDisplay:10.36,2013-08-16 13:17:00,
2013-08-16 08:22:00,66.4,55.5,30.94,North,351,2.3,0.0,68,0.00,,,0.00,WeatherDisplay:10.36,2013-08-16 13:22:00,
2013-08-16 08:27:00,66.4,54.3,30.94,North,351,0.0,0.0,65,0.00,,,0.00,WeatherDisplay:10.36,2013-08-16 13:27:00,
2013-08-16 08:32:00,66.6,54.0,30.97,North,351,0.0,0.0,64,0.00,,,0.00,WeatherDisplay:10.36,2013-08-16 13:32:00,
2013-08-16 08:37:00,66.6,52.2,30.97,North,351,0.0,0.0,60,0.00,,,0.00,WeatherDisplay:10.36,2013-08-16 13:37:00,
2013-08-16 08:42:00,66.6,51.8,30.97,NE,41,0.0,0.0,59,0.00,,,0.00,WeatherDisplay:10.36,2013-08-16 13:42:00,
2013-08-16 08:47:00,66.7,52.4,30.97,North,351,0.0,0.0,60,0.00,,,0.00,WeatherDisplay:10.36,2013-08-16 13:47:00,
2013-08-16 08:52:00,66.9,52.1,30.97,North,351,0.0,0.0,59,0.00,,,0.00,WeatherDisplay:10.36,2013-08-16 13:52:00,
2013-08-16 08:57:00,66.9,52.1,30.97,North,351,0.0,0.0,59,0.00,,,0.00,WeatherDisplay:10.36,2013-08-16 13:57:00,
2013-08-16 09:02:00,67.1,52.3,30.14,NE,41,4.0,0.0,59,0.00,,,0.00,WeatherDisplay:10.36,2013-08-16 14:02:00,
2013-08-16 09:07:00,67.1,51.8,30.14,West,263,0.0,0.0,58,0.00,,,0.00,WeatherDisplay:10.36,2013-08-16 14:07:00,
2013-08-16 09:12:00,67.1,51.8,30.14,NE,40,0.0,2.7,58,0.00,,,0.00,WeatherDisplay:10.36,2013-08-16 14:12:00,
2013-08-16 09:17:00,67.1,50.9,30.14,NE,39,0.0,0.0,56,0.00,,,0.00,WeatherDisplay:10.36,2013-08-16 14:17:00,
2013-08-16 09:22:00,67.1,51.4,30.14,SW,219,0.0,0.0,57,0.00,,,0.00,WeatherDisplay:10.36,2013-08-16 14:22:00,
2013-08-16 09:27:00,67.5,51.7,30.14,ENE,76,0.0,0.0,57,0.00,,,0.00,WeatherDisplay:10.36,2013-08-16 14:27:00,
2013-08-16 09:32:00,67.6,51.9,30.14,West,261,0.0,0.0,57,0.00,,,0.00,WeatherDisplay:10.36,2013-08-16 14:32:00,
2013-08-16 09:37:00,68.0,50.7,30.14,NE,41,0.0,0.0,54,0.00,,,0.00,WeatherDisplay:10.36,2013-08-16 14:37:00,
2013-08-16 09:42:00,68.2,50.9,30.14,NE,41,0.0,0.0,54,0.00,,,0.00,WeatherDisplay:10.36,2013-08-16 14:42:00,
2013-08-16 09:47:00,68.5,50.2,30.14,NE,39,0.0,0.0,52,0.00,,,0.00,WeatherDisplay:10.36,2013-08-16 14:47:00,
2013-08-16 09:52:00,68.7,49.9,30.14,NE,41,0.0,0.0,51,0.00,,,0.00,WeatherDisplay:10.36,2013-08-16 14:52:00,
2013-08-16 09:57:00,69.1,49.7,30.14,NE,41,0.0,0.0,50,0.00,,,0.00,WeatherDisplay:10.36,2013-08-16 14:57:00,
2013-08-16 10:03:00,69.4,49.4,30.97,North,351,3.5,0.0,49,0.00,,,0.00,WeatherDisplay:10.36,2013-08-16 15:03:00,
2013-08-16 10:08:00,69.4,49.4,30.97,NE,41,3.5,0.0,49,0.00,,,0.00,WeatherDisplay:10.36,2013-08-16 15:08:00,
2013-08-16 10:13:00,69.8,49.8,30.97,NE,38,3.5,0.0,49,0.00,,,0.00,WeatherDisplay:10.36,2013-08-16 15:13:00,
2013-08-16 10:18:00,70.2,50.6,30.14,NE,38,0.0,0.0,50,0.00,,,0.00,WeatherDisplay:10.36,2013-08-16 15:18:00,
2013-08-16 10:23:00,70.5,50.4,30.14,NE,37,2.7,0.0,49,0.00,,,0.00,WeatherDisplay:10.36,2013-08-16 15:23:00,
2013-08-16 10:28:00,70.9,49.1,30.14,NE,37,0.0,0.0,46,0.00,,,0.00,WeatherDisplay:10.36,2013-08-16 15:28:00,
2013-08-16 10:33:00,71.2,50.0,30.14,NE,37,0.0,0.0,47,0.00,,,0.00,WeatherDisplay:10.36,2013-08-16 15:33:00,
2013-08-16 10:38:00,71.4,49.6,30.14,NNE,28,0.0,0.0,46,0.00,,,0.00,WeatherDisplay:10.36,2013-08-16 15:38:00,
2013-08-16 10:43:00,71.6,49.1,30.14,NE,34,3.6,0.0,45,0.00,,,0.00,WeatherDisplay:10.36,2013-08-16 15:43:00,
2013-08-16 10:49:00,71.8,49.3,30.14,NE,39,3.6,3.6,45,0.00,,,0.00,WeatherDisplay:10.36,2013-08-16 15:49:00,
2013-08-16 10:54:00,72.0,49.5,30.14,NNE,27,3.6,0.0,45,0.00,,,0.00,WeatherDisplay:10.36,2013-08-16 15:54:00,
2013-08-16 10:59:00,72.1,49.0,30.14,WSW,247,0.0,0.0,44,0.00,,,0.00,WeatherDisplay:10.36,2013-08-16 15:59:00,
2013-08-16 11:04:00,72.3,49.2,30.14,NE,38,5.8,5.8,44,0.00,,,0.00,WeatherDisplay:10.36,2013-08-16 16:04:00,
2013-08-16 11:09:00,72.7,49.5,30.14,NNE,28,3.6,3.6,44,0.00,,,0.00,WeatherDisplay:10.36,2013-08-16 16:09:00,
2013-08-16 11:14:00,73.0,49.2,30.14,NE,37,4.9,0.0,43,0.00,,,0.00,WeatherDisplay:10.36,2013-08-16 16:14:00,
2013-08-16 11:19:00,73.4,50.2,30.14,NE,38,5.8,5.8,44,0.00,,,0.00,WeatherDisplay:10.36,2013-08-16 16:19:00,
2013-08-16 11:24:00,73.8,50.5,30.14,NE,36,0.0,0.0,44,0.00,,,0.00,WeatherDisplay:10.36,2013-08-16 16:24:00,
2013-08-16 11:29:00,73.6,49.1,30.14,NE,41,4.0,4.0,42,0.00,,,0.00,WeatherDisplay:10.36,2013-08-16 16:29:00,
2013-08-16 11:34:00,73.4,48.3,30.14,NE,39,6.9,6.9,41,0.00,,,0.00,WeatherDisplay:10.36,2013-08-16 16:34:00,
2013-08-16 11:39:00,73.4,46.2,30.14,SSW,206,5.8,5.8,38,0.00,,,0.00,WeatherDisplay:10.36,2013-08-16 16:39:00,
2013-08-16 11:44:00,73.6,45.7,30.14,NE,34,4.6,4.6,37,0.00,,,0.00,WeatherDisplay:10.36,2013-08-16 16:44:00,
2013-08-16 11:49:00,74.1,46.2,30.14,NE,37,4.9,4.9,37,0.00,,,0.00,WeatherDisplay:10.36,2013-08-16 16:49:00,
2013-08-16 11:54:00,74.7,47.4,30.14,NE,38,5.8,5.8,38,0.00,,,0.00,WeatherDisplay:10.36,2013-08-16 16:54:00,
2013-08-16 11:59:00,75.2,47.8,30.14,NE,38,0.0,0.0,38,0.00,,,0.00,WeatherDisplay:10.36,2013-08-16 16:59:00,
2013-08-16 12:04:00,75.2,45.7,30.14,NE,37,3.5,0.0,35,0.00,,,0.00,WeatherDisplay:10.36,2013-08-16 17:04:00,
2013-08-16 12:09:00,75.4,45.1,30.14,NNE,28,3.5,0.0,34,0.00,,,0.00,WeatherDisplay:10.36,2013-08-16 17:09:00,
2013-08-16 12:14:00,75.7,46.1,30.14,NNE,31,5.8,5.8,35,0.00,,,0.00,WeatherDisplay:10.36,2013-08-16 17:14:00,
2013-08-16 12:19:00,75.7,44.6,30.14,NNE,32,4.9,4.9,33,0.00,,,0.00,WeatherDisplay:10.36,2013-08-16 17:19:00,
2013-08-16 12:24:00,75.9,44.7,30.14,NNE,29,4.0,0.0,33,0.00,,,0.00,WeatherDisplay:10.36,2013-08-16 17:24:00,
2013-08-16 12:29:00,75.7,43.8,30.14,SSE,153,4.5,4.5,32,0.00,,,0.00,WeatherDisplay:10.36,2013-08-16 17:29:00,
2013-08-16 12:34:00,75.7,44.6,30.14,NE,35,8.1,8.1,33,0.00,,,0.00,WeatherDisplay:10.36,2013-08-16 17:34:00,
2013-08-16 12:39:00,76.1,45.7,30.14,NE,38,6.9,6.9,34,0.00,,,0.00,WeatherDisplay:10.36,2013-08-16 17:39:00,
2013-08-16 12:44:00,76.3,45.1,30.14,NNE,32,5.8,5.8,33,0.00,,,0.00,WeatherDisplay:10.36,2013-08-16 17:44:00,
2013-08-16 12:49:00,76.5,44.4,30.14,NE,38,6.9,6.9,32,0.00,,,0.00,WeatherDisplay:10.36,2013-08-16 17:49:00,
2013-08-16 12:54:00,76.5,44.4,30.14,NE,39,7.8,7.8,32,0.00,,,0.00,WeatherDisplay:10.36,2013-08-16 17:54:00,
2013-08-16 12:59:00,76.6,45.4,30.14,NNE,28,3.5,0.0,33,0.00,,,0.00,WeatherDisplay:10.36,2013-08-16 17:59:00,
2013-08-16 13:05:00,76.5,44.4,30.14,NE,43,5.8,5.8,32,0.00,,,0.00,WeatherDisplay:10.36,2013-08-16 18:05:00,
2013-08-16 13:10:00,76.5,45.2,30.14,NE,38,5.8,5.8,33,0.00,,,0.00,WeatherDisplay:10.36,2013-08-16 18:10:00,
2013-08-16 13:15:00,76.8,44.7,30.14,NNE,32,6.7,6.7,32,0.00,,,0.00,WeatherDisplay:10.36,2013-08-16 18:15:00,
2013-08-16 13:20:00,77.0,44.0,30.14,NE,39,4.9,4.9,31,0.00,,,0.00,WeatherDisplay:10.36,2013-08-16 18:20:00,
2013-08-16 13:26:00,77.0,44.9,30.14,NNE,27,5.4,5.4,32,0.00,,,0.00,WeatherDisplay:10.36,2013-08-16 18:26:00,
2013-08-16 13:31:00,77.0,44.9,30.14,NE,35,4.9,4.9,32,0.00,,,0.00,WeatherDisplay:10.36,2013-08-16 18:31:00,
2013-08-16 13:36:00,77.0,44.9,30.14,NE,36,4.0,4.0,32,0.00,,,0.00,WeatherDisplay:10.36,2013-08-16 18:36:00,
2013-08-16 13:41:00,77.2,44.2,30.14,NNE,29,0.0,4.0,31,0.00,,,0.00,WeatherDisplay:10.36,2013-08-16 18:41:00,
2013-08-16 13:47:00,77.5,45.3,30.11,NNE,29,6.3,6.3,32,0.00,,,0.00,WeatherDisplay:10.36,2013-08-16 18:47:00,
2013-08-16 13:52:00,77.7,45.5,30.11,NE,36,4.0,4.0,32,0.00,,,0.00,WeatherDisplay:10.36,2013-08-16 18:52:00,
2013-08-16 13:57:00,77.9,45.7,30.11,NNE,29,4.9,4.9,32,0.00,,,0.00,WeatherDisplay:10.36,2013-08-16 18:57:00,
2013-08-16 14:02:00,77.7,44.7,30.14,NNE,27,5.8,5.8,31,0.00,,,0.00,WeatherDisplay:10.36,2013-08-16 19:02:00,
2013-08-16 14:07:00,77.7,44.7,30.14,NNE,32,3.6,3.6,31,0.00,,,0.00,WeatherDisplay:10.36,2013-08-16 19:07:00,
2013-08-16 14:12:00,77.5,44.5,30.14,NNE,30,4.9,4.9,31,0.00,,,0.00,WeatherDisplay:10.36,2013-08-16 19:12:00,
2013-08-16 14:17:00,77.5,44.5,30.11,NE,36,4.9,4.9,31,0.00,,,0.00,WeatherDisplay:10.36,2013-08-16 19:17:00,
2013-08-16 14:22:00,77.7,44.7,30.11,NE,35,6.7,6.7,31,0.00,,,0.00,WeatherDisplay:10.36,2013-08-16 19:22:00,
2013-08-16 14:27:00,77.9,45.7,30.11,NE,35,4.5,6.7,32,0.00,,,0.00,WeatherDisplay:10.36,2013-08-16 19:27:00,
2013-08-16 14:32:00,78.1,45.0,30.11,NNE,33,5.8,5.8,31,0.00,,,0.00,WeatherDisplay:10.36,2013-08-16 19:32:00,
2013-08-16 14:37:00,78.1,44.1,30.11,NNE,29,4.0,4.0,30,0.00,,,0.00,WeatherDisplay:10.36,2013-08-16 19:37:00,
2013-08-16 14:42:00,78.3,45.1,30.11,NE,37,6.9,6.9,31,0.00,,,0.00,WeatherDisplay:10.36,2013-08-16 19:42:00,
2013-08-16 14:47:00,78.3,44.3,30.11,NNE,27,4.5,4.5,30,0.00,,,0.00,WeatherDisplay:10.36,2013-08-16 19:47:00,
2013-08-16 14:52:00,77.9,44.0,30.11,NE,34,3.6,3.6,30,0.00,,,0.00,WeatherDisplay:10.36,2013-08-16 19:52:00,
2013-08-16 14:57:00,77.9,44.0,30.11,NNE,27,4.9,4.9,30,0.00,,,0.00,WeatherDisplay:10.36,2013-08-16 19:57:00,
2013-08-16 15:02:00,77.9,44.8,30.11,NNE,30,4.9,4.9,31,0.00,,,0.00,WeatherDisplay:10.36,2013-08-16 20:02:00,
2013-08-16 15:07:00,78.1,45.0,30.11,NNE,29,4.6,4.6,31,0.00,,,0.00,WeatherDisplay:10.36,2013-08-16 20:07:00,
2013-08-16 15:12:00,78.3,44.3,30.11,NNE,33,4.0,4.0,30,0.00,,,0.00,WeatherDisplay:10.36,2013-08-16 20:12:00,
2013-08-16 15:17:00,78.4,44.4,30.11,NNE,31,5.4,5.4,30,0.00,,,0.00,WeatherDisplay:10.36,2013-08-16 20:17:00,
2013-08-16 15:22:00,78.6,44.6,30.11,NE,37,6.9,6.9,30,0.00,,,0.00,WeatherDisplay:10.36,2013-08-16 20:22:00,
2013-08-16 15:27:00,78.8,44.7,30.11,NE,38,4.5,0.0,30,0.00,,,0.00,WeatherDisplay:10.36,2013-08-16 20:27:00,
2013-08-16 15:32:00,79.0,45.8,30.11,NE,37,3.6,0.0,31,0.00,,,0.00,WeatherDisplay:10.36,2013-08-16 20:32:00,
2013-08-16 15:38:00,79.0,45.8,30.11,NNE,31,4.9,4.9,31,0.00,,,0.00,WeatherDisplay:10.36,2013-08-16 20:38:00,
2013-08-16 15:43:00,78.8,45.6,30.11,NE,36,4.6,4.6,31,0.00,,,0.00,WeatherDisplay:10.36,2013-08-16 20:43:00,
2013-08-16 15:48:00,79.0,45.8,30.11,NE,37,5.8,5.8,31,0.00,,,0.00,WeatherDisplay:10.36,2013-08-16 20:48:00,
2013-08-16 15:53:00,79.0,45.8,30.11,NE,37,0.0,0.0,31,0.00,,,0.00,WeatherDisplay:10.36,2013-08-16 20:53:00,
2013-08-16 15:58:00,78.8,46.4,30.11,NE,38,4.9,4.9,32,0.00,,,0.00,WeatherDisplay:10.36,2013-08-16 20:58:00,
2013-08-16 16:03:00,78.6,46.3,30.11,NNE,31,4.6,4.6,32,0.00,,,0.00,WeatherDisplay:10.36,2013-08-16 21:03:00,
2013-08-16 16:08:00,78.4,46.1,30.11,NE,37,4.6,4.6,32,0.00,,,0.00,WeatherDisplay:10.36,2013-08-16 21:08:00,
2013-08-16 16:13:00,78.4,46.9,30.11,NE,37,7.4,7.4,33,0.00,,,0.00,WeatherDisplay:10.36,2013-08-16 21:13:00,
2013-08-16 16:18:00,78.4,46.9,30.11,NE,38,8.1,8.1,33,0.00,,,0.00,WeatherDisplay:10.36,2013-08-16 21:18:00,
2013-08-16 16:23:00,78.1,45.8,30.11,NNE,28,4.0,4.0,32,0.00,,,0.00,WeatherDisplay:10.36,2013-08-16 21:23:00,
2013-08-16 16:28:00,77.9,44.8,30.11,NNE,28,0.0,0.0,31,0.00,,,0.00,WeatherDisplay:10.36,2013-08-16 21:28:00,
2013-08-16 16:33:00,78.1,45.8,30.11,NE,39,0.0,0.0,32,0.00,,,0.00,WeatherDisplay:10.36,2013-08-16 21:33:00,
2013-08-16 16:38:00,78.3,46.0,30.11,NE,36,4.6,0.0,32,0.00,,,0.00,WeatherDisplay:10.36,2013-08-16 21:38:00,
2013-08-16 16:43:00,78.3,46.0,30.11,NE,39,5.8,5.8,32,0.00,,,0.00,WeatherDisplay:10.36,2013-08-16 21:43:00,
2013-08-16 16:48:00,78.3,46.0,30.11,NE,36,3.6,0.0,32,0.00,,,0.00,WeatherDisplay:10.36,2013-08-16 21:48:00,
2013-08-16 16:53:00,78.1,45.8,30.11,NNE,31,5.8,5.8,32,0.00,,,0.00,WeatherDisplay:10.36,2013-08-16 21:53:00,
2013-08-16 16:58:00,77.9,46.5,30.11,NE,34,4.9,4.9,33,0.00,,,0.00,WeatherDisplay:10.36,2013-08-16 21:58:00,
2013-08-16 17:03:00,78.1,46.6,30.11,NNE,28,4.0,4.0,33,0.00,,,0.00,WeatherDisplay:10.36,2013-08-16 22:03:00,
2013-08-16 17:08:00,78.1,45.0,30.11,NE,39,3.5,3.5,31,0.00,,,0.00,WeatherDisplay:10.36,2013-08-16 22:08:00,
2013-08-16 17:13:00,78.3,46.0,30.11,NE,35,4.6,4.6,32,0.00,,,0.00,WeatherDisplay:10.36,2013-08-16 22:13:00,
2013-08-16 17:18:00,78.4,46.1,30.11,NNE,29,4.5,0.0,32,0.00,,,0.00,WeatherDisplay:10.36,2013-08-16 22:18:00,
2013-08-16 17:23:00,78.4,46.1,30.11,NE,37,5.8,5.8,32,0.00,,,0.00,WeatherDisplay:10.36,2013-08-16 22:23:00,
2013-08-16 17:28:00,78.3,46.0,30.11,NE,37,0.0,0.0,32,0.00,,,0.00,WeatherDisplay:10.36,2013-08-16 22:28:00,
2013-08-16 17:33:00,78.3,45.1,30.94,North,351,5.8,5.8,31,0.00,,,0.00,WeatherDisplay:10.36,2013-08-16 22:33:00,
2013-08-16 17:38:00,77.7,46.3,30.94,North,351,0.0,0.0,33,0.00,,,0.00,WeatherDisplay:10.36,2013-08-16 22:38:00,
2013-08-16 17:43:00,77.7,46.3,30.94,NNE,31,0.0,0.0,33,0.00,,,0.00,WeatherDisplay:10.36,2013-08-16 22:43:00,
2013-08-16 17:48:00,77.5,46.9,30.11,NNE,28,0.0,0.0,34,0.00,,,0.00,WeatherDisplay:10.36,2013-08-16 22:48:00,
2013-08-16 17:53:00,77.5,46.9,30.11,NNE,28,0.0,0.0,34,0.00,,,0.00,WeatherDisplay:10.36,2013-08-16 22:53:00,
2013-08-16 17:58:00,77.5,46.9,30.11,NNE,30,0.0,0.0,34,0.00,,,0.00,WeatherDisplay:10.36,2013-08-16 22:58:00,
2013-08-16 18:03:00,77.5,46.9,30.11,NNE,27,3.5,0.0,34,0.00,,,0.00,WeatherDisplay:10.36,2013-08-16 23:03:00,
2013-08-16 18:09:00,77.5,47.7,30.11,NNE,27,0.0,0.0,35,0.00,,,0.00,WeatherDisplay:10.36,2013-08-16 23:09:00,
2013-08-16 18:14:00,77.4,46.8,30.11,NNE,27,0.0,0.0,34,0.00,,,0.00,WeatherDisplay:10.36,2013-08-16 23:14:00,
2013-08-16 18:19:00,77.2,46.6,30.11,North,351,3.6,0.0,34,0.00,,,0.00,WeatherDisplay:10.36,2013-08-16 23:19:00,
2013-08-16 18:24:00,76.8,46.3,30.11,North,351,4.0,4.0,34,0.00,,,0.00,WeatherDisplay:10.36,2013-08-16 23:24:00,
2013-08-16 18:29:00,76.5,46.8,30.11,North,351,0.0,0.0,35,0.00,,,0.00,WeatherDisplay:10.36,2013-08-16 23:29:00,
2013-08-16 18:34:00,76.3,47.4,30.94,North,351,0.0,0.0,36,0.00,,,0.00,WeatherDisplay:10.36,2013-08-16 23:34:00,
2013-08-16 18:39:00,76.3,48.1,30.94,North,351,0.0,0.0,37,0.00,,,0.00,WeatherDisplay:10.36,2013-08-16 23:39:00,
2013-08-16 18:44:00,76.1,48.6,30.94,North,351,0.0,0.0,38,0.00,,,0.00,WeatherDisplay:10.36,2013-08-16 23:44:00,
2013-08-16 18:49:00,75.9,48.5,30.91,North,351,0.0,0.0,38,0.00,,,0.00,WeatherDisplay:10.36,2013-08-16 23:49:00,
2013-08-16 18:54:00,75.7,49.0,30.91,North,351,0.0,0.0,39,0.00,,,0.00,WeatherDisplay:10.36,2013-08-16 23:54:00,
2013-08-16 18:59:00,75.6,50.2,30.91,North,351,0.0,0.0,41,0.00,,,0.00,WeatherDisplay:10.36,2013-08-16 23:59:00,
2013-08-16 19:04:00,75.6,51.5,30.94,North,351,0.0,0.0,43,0.00,,,0.00,WeatherDisplay:10.36,2013-08-17 00:04:00,
2013-08-16 19:10:00,75.4,51.9,30.94,North,351,0.0,0.0,44,0.00,,,0.00,WeatherDisplay:10.36,2013-08-17 00:10:00,
2013-08-16 19:15:00,75.4,52.6,30.94,North,351,0.0,0.0,45,0.00,,,0.00,WeatherDisplay:10.36,2013-08-17 00:15:00,
2013-08-16 19:20:00,75.4,53.2,30.94,North,351,0.0,0.0,46,0.00,,,0.00,WeatherDisplay:10.36,2013-08-17 00:20:00,
2013-08-16 19:25:00,75.2,53.6,30.94,North,351,0.0,0.0,47,0.00,,,0.00,WeatherDisplay:10.36,2013-08-17 00:25:00,
2013-08-16 19:30:00,75.0,53.4,30.94,North,351,0.0,0.0,47,0.00,,,0.00,WeatherDisplay:10.36,2013-08-17 00:30:00,
2013-08-16 19:36:00,74.8,53.8,30.94,North,351,0.0,0.0,48,0.00,,,0.00,WeatherDisplay:10.36,2013-08-17 00:36:00,
2013-08-16 19:41:00,74.7,53.1,30.94,North,351,0.0,0.0,47,0.00,,,0.00,WeatherDisplay:10.36,2013-08-17 00:41:00,
2013-08-16 19:46:00,74.5,52.3,30.94,North,351,0.0,0.0,46,0.00,,,0.00,WeatherDisplay:10.36,2013-08-17 00:46:00,
2013-08-16 19:51:00,74.3,51.6,30.94,North,351,0.0,0.0,45,0.00,,,0.00,WeatherDisplay:10.36,2013-08-17 00:51:00,
2013-08-16 19:56:00,74.3,51.6,30.94,North,351,0.0,0.0,45,0.00,,,0.00,WeatherDisplay:10.36,2013-08-17 00:56:00,
2013-08-16 20:01:00,73.9,51.3,30.94,North,351,0.0,0.0,45,0.00,,,0.00,WeatherDisplay:10.36,2013-08-17 01:01:00,
2013-08-16 20:06:00,73.8,51.1,30.94,North,351,0.0,0.0,45,0.00,,,0.00,WeatherDisplay:10.36,2013-08-17 01:06:00,
2013-08-16 20:11:00,73.4,51.4,30.94,North,351,0.0,0.0,46,0.00,,,0.00,WeatherDisplay:10.36,2013-08-17 01:11:00,
2013-08-16 20:16:00,73.2,51.2,30.94,North,351,0.0,0.0,46,0.00,,,0.00,WeatherDisplay:10.36,2013-08-17 01:16:00,
2013-08-16 20:21:00,73.0,51.0,30.94,North,351,0.0,0.0,46,0.00,,,0.00,WeatherDisplay:10.36,2013-08-17 01:21:00,
2013-08-16 20:26:00,72.9,50.9,30.94,North,351,0.0,0.0,46,0.00,,,0.00,WeatherDisplay:10.36,2013-08-17 01:26:00,
2013-08-16 20:31:00,72.7,50.7,30.94,North,351,0.0,0.0,46,0.00,,,0.00,WeatherDisplay:10.36,2013-08-17 01:31:00,
2013-08-16 20:36:00,72.5,50.5,30.94,North,351,0.0,0.0,46,0.00,,,0.00,WeatherDisplay:10.36,2013-08-17 01:36:00,
2013-08-16 20:41:00,72.3,51.0,30.94,North,351,0.0,0.0,47,0.00,,,0.00,WeatherDisplay:10.36,2013-08-17 01:41:00,
2013-08-16 20:46:00,72.1,51.4,30.94,North,351,0.0,0.0,48,0.00,,,0.00,WeatherDisplay:10.36,2013-08-17 01:46:00,
2013-08-16 20:51:00,72.0,51.2,30.94,North,351,0.0,0.0,48,0.00,,,0.00,WeatherDisplay:10.36,2013-08-17 01:51:00,
2013-08-16 20:56:00,71.8,51.0,30.94,North,351,0.0,0.0,48,0.00,,,0.00,WeatherDisplay:10.36,2013-08-17 01:56:00,
2013-08-16 21:01:00,71.6,51.4,30.94,North,351,0.0,0.0,49,0.00,,,0.00,WeatherDisplay:10.36,2013-08-17 02:01:00,
2013-08-16 21:06:00,71.4,51.3,30.94,North,351,0.0,0.0,49,0.00,,,0.00,WeatherDisplay:10.36,2013-08-17 02:06:00,
2013-08-16 21:11:00,71.2,51.6,30.94,North,351,0.0,0.0,50,0.00,,,0.00,WeatherDisplay:10.36,2013-08-17 02:11:00,
2013-08-16 21:16:00,70.9,51.3,30.94,North,351,0.0,0.0,50,0.00,,,0.00,WeatherDisplay:10.36,2013-08-17 02:16:00,
2013-08-16 21:21:00,70.7,51.7,30.94,North,351,0.0,0.0,51,0.00,,,0.00,WeatherDisplay:10.36,2013-08-17 02:21:00,
2013-08-16 21:26:00,70.5,52.0,30.94,North,351,0.0,0.0,52,0.00,,,0.00,WeatherDisplay:10.36,2013-08-17 02:26:00,
2013-08-16 21:31:00,70.2,52.2,30.94,North,351,0.0,0.0,53,0.00,,,0.00,WeatherDisplay:10.36,2013-08-17 02:31:00,
2013-08-16 21:36:00,70.0,52.1,30.94,North,351,0.0,0.0,53,0.00,,,0.00,WeatherDisplay:10.36,2013-08-17 02:36:00,
2013-08-16 21:41:00,69.8,52.4,30.94,North,351,0.0,0.0,54,0.00,,,0.00,WeatherDisplay:10.36,2013-08-17 02:41:00,
2013-08-16 21:46:00,69.6,52.7,30.94,North,351,0.0,0.0,55,0.00,,,0.00,WeatherDisplay:10.36,2013-08-17 02:46:00,
2013-08-16 21:51:00,69.4,52.6,30.94,North,351,0.0,0.0,55,0.00,,,0.00,WeatherDisplay:10.36,2013-08-17 02:51:00,
2013-08-16 21:56:00,69.3,52.9,30.94,North,351,0.0,0.0,56,0.00,,,0.00,WeatherDisplay:10.36,2013-08-17 02:56:00,
2013-08-16 22:01:00,69.1,53.2,30.94,North,351,0.0,0.0,57,0.00,,,0.00,WeatherDisplay:10.36,2013-08-17 03:01:00,
2013-08-16 22:06:00,68.9,53.0,30.97,North,351,0.0,0.0,57,0.00,,,0.00,WeatherDisplay:10.36,2013-08-17 03:06:00,
2013-08-16 22:11:00,68.9,53.5,30.97,North,351,0.0,0.0,58,0.00,,,0.00,WeatherDisplay:10.36,2013-08-17 03:11:00,
2013-08-16 22:16:00,68.7,53.3,30.97,North,351,0.0,0.0,58,0.00,,,0.00,WeatherDisplay:10.36,2013-08-17 03:16:00,
2013-08-16 22:21:00,68.5,53.6,30.97,North,351,0.0,0.0,59,0.00,,,0.00,WeatherDisplay:10.36,2013-08-17 03:21:00,
2013-08-16 22:26:00,68.4,53.5,30.97,North,351,0.0,0.0,59,0.00,,,0.00,WeatherDisplay:10.36,2013-08-17 03:26:00,
2013-08-16 22:31:00,68.0,53.1,30.97,North,351,0.0,0.0,59,0.00,,,0.00,WeatherDisplay:10.36,2013-08-17 03:31:00,
2013-08-16 22:36:00,67.8,53.4,30.97,North,351,0.0,0.0,60,0.00,,,0.00,WeatherDisplay:10.36,2013-08-17 03:36:00,
2013-08-16 22:41:00,68.0,54.0,30.97,North,351,0.0,0.0,61,0.00,,,0.00,WeatherDisplay:10.36,2013-08-17 03:41:00,
2013-08-16 22:46:00,68.0,54.0,30.94,North,351,0.0,0.0,61,0.00,,,0.00,WeatherDisplay:10.36,2013-08-17 03:46:00,
2013-08-16 22:51:00,67.8,53.9,30.94,North,351,0.0,0.0,61,0.00,,,0.00,WeatherDisplay:10.36,2013-08-17 03:51:00,
2013-08-16 22:56:00,67.6,53.7,30.94,North,351,0.0,0.0,61,0.00,,,0.00,WeatherDisplay:10.36,2013-08-17 03:56:00,
2013-08-16 23:01:00,67.5,54.0,30.97,North,351,0.0,0.0,62,0.00,,,0.00,WeatherDisplay:10.36,2013-08-17 04:01:00,
2013-08-16 23:02:00,67.5,54.0,30.97,North,351,0.0,0.0,62,0.00,,,0.00,WeatherDisplay:10.36,2013-08-17 04:02:00,
2013-08-16 23:04:00,67.5,54.0,30.97,North,351,0.0,0.0,62,0.00,,,0.00,WeatherDisplay:10.36,2013-08-17 04:04:00,
2013-08-16 23:05:00,67.5,54.0,30.97,North,351,0.0,0.0,62,0.00,,,0.00,WeatherDisplay:10.36,2013-08-17 04:05:00,
2013-08-16 23:10:00,67.3,53.8,30.97,North,351,0.0,0.0,62,0.00,,,0.00,WeatherDisplay:10.36,2013-08-17 04:10:00,
2013-08-16 23:15:00,67.3,53.8,30.97,North,351,0.0,0.0,62,0.00,,,0.00,WeatherDisplay:10.36,2013-08-17 04:15:00,
2013-08-16 23:20:00,67.1,54.1,30.97,North,351,0.0,0.0,63,0.00,,,0.00,WeatherDisplay:10.36,2013-08-17 04:20:00,
2013-08-16 23:25:00,66.9,53.9,30.97,North,351,0.0,0.0,63,0.00,,,0.00,WeatherDisplay:10.36,2013-08-17 04:25:00,
2013-08-16 23:30:00,66.9,54.3,30.97,North,351,0.0,0.0,64,0.00,,,0.00,WeatherDisplay:10.36,2013-08-17 04:30:00,
2013-08-16 23:35:00,66.7,54.2,30.97,North,351,0.0,0.0,64,0.00,,,0.00,WeatherDisplay:10.36,2013-08-17 04:35:00,
2013-08-16 23:40:00,66.6,54.0,30.97,North,351,0.0,0.0,64,0.00,,,0.00,WeatherDisplay:10.36,2013-08-17 04:40:00,
2013-08-16 23:45:00,66.6,54.0,30.97,North,351,0.0,0.0,64,0.00,,,0.00,WeatherDisplay:10.36,2013-08-17 04:45:00,
2013-08-16 23:50:00,66.4,54.3,30.97,North,351,0.0,0.0,65,0.00,,,0.00,WeatherDisplay:10.36,2013-08-17 04:50:00,
2013-08-16 23:55:00,66.4,54.3,30.97,North,351,0.0,0.0,65,0.00,,,0.00,WeatherDisplay:10.36,2013-08-17 04:55:00,